| time (UTC) | temp F | wind direction | speed MPH | gust MPH | rain 1hr in | rain 24hr in | rain mn in | humidity % | barometer mb |
| 20260901162934 | 94 | 297 | 3.0 | 7.0 | 0.00 | 0.00 | 0.00 | 55 | 1012.6 |
| 20260901162434 | 94 | 6 | 3.0 | 9.0 | 0.00 | 0.00 | 0.00 | 55 | 1012.7 |
| 20260901161935 | 93 | 321 | 4.0 | 9.0 | 0.00 | 0.00 | 0.00 | 56 | 1012.8 |
| 20260901161433 | 93 | 279 | 4.0 | 9.0 | 0.00 | 0.00 | 0.00 | 56 | 1012.8 |
| 20260901160933 | 93 | 321 | 3.0 | 7.0 | 0.00 | 0.00 | 0.00 | 57 | 1012.9 |
| 20260901160429 | 93 | 333 | 2.0 | 8.0 | 0.00 | 0.00 | 0.00 | 56 | 1013.0 |
| 20260901155929 | 92 | 146 | 3.0 | 10.0 | 0.00 | 0.00 | 0.00 | 58 | 1012.9 |
| 20260901155430 | 92 | 284 | 3.0 | 10.0 | 0.00 | 0.00 | 0.00 | 57 | 1013.1 |
| 20260901154428 | 92 | 290 | 2.0 | 7.0 | 0.00 | 0.00 | 0.00 | 56 | 1013.2 |
| 20260901153927 | 92 | 326 | 2.0 | 8.0 | 0.00 | 0.00 | 0.00 | 57 | 1013.2 |
| 20260901152921 | 92 | 290 | 2.0 | 9.0 | 0.00 | 0.00 | 0.00 | 57 | 1013.3 |
| 20260901152421 | 92 | 252 | 3.0 | 9.0 | 0.00 | 0.00 | 0.00 | 57 | 1013.4 |
| 20260901151922 | 92 | 349 | 2.0 | 8.0 | 0.00 | 0.00 | 0.00 | 57 | 1013.4 |
| 20260901151421 | 92 | 316 | 2.0 | 6.0 | 0.00 | 0.00 | 0.00 | 57 | 1013.4 |
| 20260901150921 | 91 | 248 | 2.0 | 6.0 | 0.00 | 0.00 | 0.00 | 58 | 1013.4 |
| 20260901150420 | 91 | 311 | 2.0 | 6.0 | 0.00 | 0.00 | 0.00 | 59 | 1013.5 |
| 20260901145414 | 91 | 330 | 3.0 | 9.0 | 0.00 | 0.00 | 0.00 | 59 | 1013.5 |
| 20260901144916 | 91 | 242 | 3.0 | 9.0 | 0.00 | 0.00 | 0.00 | 59 | 1013.5 |
| 20260901144415 | 90 | 255 | 1.0 | 8.0 | 0.00 | 0.00 | 0.00 | 61 | 1013.5 |
| 20260901143915 | 89 | 292 | 0.0 | 4.0 | 0.00 | 0.00 | 0.00 | 62 | 1013.6 |
| 20260901143415 | 89 | 208 | 1.0 | 4.0 | 0.00 | 0.00 | 0.00 | 62 | 1013.6 |
| 20260901142910 | 89 | 304 | 2.0 | 5.0 | 0.00 | 0.00 | 0.00 | 62 | 1013.6 |
| 20260901142411 | 89 | 329 | 1.0 | 5.0 | 0.00 | 0.00 | 0.00 | 61 | 1013.5 |
| 20260901141910 | 89 | 309 | 0.0 | 5.0 | 0.00 | 0.00 | 0.00 | 62 | 1013.6 |
| 20260901141411 | 89 | 294 | 1.0 | 5.0 | 0.00 | 0.00 | 0.00 | 63 | 1013.6 |
| 20260901140911 | 89 | 259 | 2.0 | 5.0 | 0.00 | 0.00 | 0.00 | 65 | 1013.5 |
| 20260901140411 | 89 | 290 | 2.0 | 4.0 | 0.00 | 0.00 | 0.00 | 66 | 1013.6 |
| 20260901135913 | 89 | 239 | 1.0 | 4.0 | 0.00 | 0.00 | 0.00 | 66 | 1013.6 |
| 20260901134905 | 89 | 337 | 1.0 | 6.0 | 0.00 | 0.00 | 0.00 | 65 | 1013.6 |
| 20260901133905 | 88 | 200 | 1.0 | 6.0 | 0.00 | 0.00 | 0.00 | 66 | 1013.6 |
| 20260901133403 | 87 | 238 | 1.0 | 6.0 | 0.00 | 0.00 | 0.00 | 66 | 1013.6 |
| 20260901132359 | 87 | 254 | 0.0 | 4.0 | 0.00 | 0.00 | 0.00 | 68 | 1013.7 |
| 20260901131900 | 86 | 252 | 0.0 | 4.0 | 0.00 | 0.00 | 0.00 | 71 | 1013.7 |
| 20260901131402 | 86 | 309 | 0.0 | 4.0 | 0.00 | 0.00 | 0.00 | 71 | 1013.7 |
| 20260901130859 | 85 | 187 | 1.0 | 5.0 | 0.00 | 0.00 | 0.00 | 73 | 1013.8 |
| 20260901130357 | 85 | 211 | 1.0 | 5.0 | 0.00 | 0.00 | 0.00 | 73 | 1013.9 |
| 20260901125858 | 84 | 248 | 1.0 | 3.0 | 0.00 | 0.00 | 0.00 | 75 | 1013.9 |
| 20260901124852 | 84 | 212 | 2.0 | 5.0 | 0.00 | 0.00 | 0.00 | 76 | 1014.0 |
| 20260901123851 | 83 | 215 | 1.0 | 4.0 | 0.00 | 0.00 | 0.00 | 78 | 1014.0 |
| 20260901123352 | 83 | 197 | 1.0 | 4.0 | 0.00 | 0.00 | 0.00 | 79 | 1014.1 |
| 20260901122852 | 82 | 255 | 2.0 | 5.0 | 0.00 | 0.00 | 0.00 | 79 | 1014.1 |
| 20260901122348 | 82 | 281 | 1.0 | 5.0 | 0.00 | 0.00 | 0.00 | 79 | 1014.1 |
| 20260901120847 | 81 | 238 | 0.0 | 2.0 | 0.00 | 0.00 | 0.00 | 81 | 1014.0 |
| 20260901120345 | 81 | 248 | 0.0 | 3.0 | 0.00 | 0.00 | 0.00 | 81 | 1014.0 |
| 20260901115843 | 81 | 215 | 0.0 | 3.0 | 0.00 | 0.00 | 0.00 | 81 | 1013.9 |
| 20260901113840 | 81 | 216 | 0.0 | 2.0 | 0.00 | 0.00 | 0.00 | 81 | 1013.6 |
| 20260901113337 | 81 | 201 | 1.0 | 3.0 | 0.00 | 0.00 | 0.00 | 82 | 1013.6 |
| 20260901112838 | 81 | 209 | 0.0 | 3.0 | 0.00 | 0.00 | 0.00 | 82 | 1013.5 |
| 20260901112334 | 80 | 240 | 0.0 | 1.0 | 0.00 | 0.00 | 0.00 | 83 | 1013.6 |
| 20260901111834 | 80 | 252 | 0.0 | 1.0 | 0.00 | 0.00 | 0.00 | 84 | 1013.6 |
| 20260901111334 | 80 | 259 | 1.0 | 3.0 | 0.00 | 0.00 | 0.00 | 84 | 1013.6 |
| 20260901110835 | 80 | 222 | 1.0 | 3.0 | 0.00 | 0.00 | 0.00 | 84 | 1013.6 |
| 20260901110335 | 79 | 266 | 0.0 | 1.0 | 0.00 | 0.00 | 0.00 | 86 | 1013.6 |
| 20260901104328 | 79 | 211 | 0.0 | 4.0 | 0.00 | 0.00 | 0.00 | 86 | 1013.5 |
| 20260901103830 | 79 | 233 | 0.0 | 2.0 | 0.00 | 0.00 | 0.00 | 86 | 1013.6 |
| 20260901102827 | 79 | 250 | 0.0 | 1.0 | 0.00 | 0.00 | 0.00 | 87 | 1013.4 |
| 20260901102327 | 79 | 280 | 0.0 | 2.0 | 0.00 | 0.00 | 0.00 | 87 | 1013.4 |
| 20260901101319 | 79 | 221 | 0.0 | 1.0 | 0.00 | 0.00 | 0.00 | 87 | 1013.4 |
| 20260901100817 | 79 | 221 | 0.0 | 1.0 | 0.00 | 0.00 | 0.00 | 87 | 1013.3 |
| 20260901100316 | 79 | 229 | 0.0 | 2.0 | 0.00 | 0.00 | 0.00 | 87 | 1013.2 |
| 20260901095815 | 79 | 198 | 1.0 | 3.0 | 0.00 | 0.00 | 0.00 | 87 | 1013.2 |
| 20260901095317 | 79 | 211 | 1.0 | 3.0 | 0.00 | 0.00 | 0.00 | 87 | 1013.2 |
| 20260901094809 | 79 | 188 | 1.0 | 3.0 | 0.00 | 0.00 | 0.00 | 87 | 1013.2 |
| 20260901094307 | 79 | 203 | 0.0 | 3.0 | 0.00 | 0.00 | 0.00 | 86 | 1013.2 |
| 20260901093805 | 79 | 221 | 0.0 | 1.0 | 0.00 | 0.00 | 0.00 | 86 | 1013.2 |
| 20260901093304 | 79 | 221 | 1.0 | 4.0 | 0.00 | 0.00 | 0.00 | 86 | 1013.3 |
| 20260901092804 | 79 | 235 | 1.0 | 5.0 | 0.00 | 0.00 | 0.00 | 86 | 1013.5 |
| 20260901092256 | 79 | 242 | 1.0 | 5.0 | 0.00 | 0.00 | 0.00 | 86 | 1013.4 |
| 20260901091758 | 79 | 215 | 1.0 | 7.0 | 0.00 | 0.00 | 0.00 | 86 | 1013.5 |
| 20260901090257 | 79 | 222 | 0.0 | 3.0 | 0.00 | 0.00 | 0.00 | 88 | 1013.6 |
| 20260901085757 | 79 | 246 | 0.0 | 3.0 | 0.00 | 0.00 | 0.00 | 88 | 1013.5 |
| 20260901084749 | 79 | 201 | 1.0 | 4.0 | 0.00 | 0.00 | 0.00 | 88 | 1013.5 |
| 20260901084247 | 79 | 274 | 0.0 | 4.0 | 0.00 | 0.00 | 0.00 | 88 | 1013.5 |
| 20260901083748 | 79 | 247 | 0.0 | 2.0 | 0.00 | 0.00 | 0.00 | 88 | 1013.5 |
| 20260901083248 | 79 | 214 | 0.0 | 2.0 | 0.00 | 0.00 | 0.00 | 88 | 1013.5 |
| 20260901082747 | 79 | 190 | 1.0 | 4.0 | 0.00 | 0.00 | 0.00 | 88 | 1013.5 |
| 20260901082242 | 79 | 208 | 1.0 | 4.0 | 0.00 | 0.00 | 0.00 | 88 | 1013.5 |
| 20260901081743 | 79 | 215 | 0.0 | 4.0 | 0.00 | 0.00 | 0.00 | 88 | 1013.5 |
| 20260901081244 | 79 | 210 | 0.0 | 4.0 | 0.00 | 0.00 | 0.00 | 88 | 1013.4 |
| 20260901080743 | 79 | 255 | 0.0 | 3.0 | 0.00 | 0.00 | 0.00 | 88 | 1013.5 |
| 20260901080241 | 79 | 267 | 0.0 | 3.0 | 0.00 | 0.00 | 0.00 | 89 | 1013.4 |
| 20260901075741 | 79 | 195 | 1.0 | 3.0 | 0.00 | 0.00 | 0.00 | 89 | 1013.4 |
| 20260901075235 | 79 | 198 | 1.0 | 3.0 | 0.00 | 0.00 | 0.00 | 89 | 1013.4 |
| 20260901074735 | 79 | 210 | 1.0 | 3.0 | 0.00 | 0.00 | 0.00 | 89 | 1013.4 |
| 20260901073235 | 79 | 207 | 2.0 | 5.0 | 0.00 | 0.00 | 0.00 | 89 | 1013.7 |
| 20260901072736 | 79 | 252 | 2.0 | 4.0 | 0.00 | 0.00 | 0.00 | 88 | 1013.8 |
| 20260901072230 | 79 | 212 | 1.0 | 3.0 | 0.00 | 0.00 | 0.00 | 88 | 1013.8 |
| 20260901071727 | 79 | 200 | 1.0 | 3.0 | 0.00 | 0.00 | 0.00 | 88 | 1013.8 |
| 20260901071228 | 79 | 215 | 1.0 | 3.0 | 0.00 | 0.00 | 0.00 | 88 | 1013.8 |
| 20260901070229 | 79 | 203 | 0.0 | 2.0 | 0.00 | 0.00 | 0.00 | 88 | 1013.9 |
| 20260901065729 | 79 | 215 | 0.0 | 2.0 | 0.00 | 0.00 | 0.00 | 88 | 1014.0 |
| 20260901065224 | 80 | 207 | 0.0 | 2.0 | 0.00 | 0.00 | 0.00 | 88 | 1013.9 |
| 20260901064724 | 80 | 215 | 0.0 | 2.0 | 0.00 | 0.00 | 0.00 | 88 | 1014.0 |
| 20260901064225 | 80 | 210 | 0.0 | 3.0 | 0.00 | 0.00 | 0.00 | 87 | 1014.0 |
| 20260901063223 | 80 | 210 | 1.0 | 3.0 | 0.00 | 0.00 | 0.00 | 88 | 1014.2 |
| 20260901062723 | 80 | 304 | 0.0 | 3.0 | 0.00 | 0.00 | 0.00 | 88 | 1014.1 |
| 20260901062219 | 80 | 233 | 1.0 | 4.0 | 0.00 | 0.00 | 0.00 | 88 | 1014.0 |
| 20260901061719 | 80 | 255 | 2.0 | 5.0 | 0.00 | 0.00 | 0.00 | 87 | 1014.0 |
| 20260901061218 | 80 | 233 | 2.0 | 5.0 | 0.00 | 0.00 | 0.00 | 87 | 1014.0 |
| 20260901060719 | 79 | 204 | 1.0 | 3.0 | 0.00 | 0.00 | 0.00 | 87 | 1014.0 |
| 20260901060217 | 79 | 210 | 1.0 | 4.0 | 0.00 | 0.00 | 0.00 | 87 | 1014.1 |
| 20260901055718 | 79 | 207 | 1.0 | 5.0 | 0.00 | 0.00 | 0.00 | 87 | 1014.2 |
| 20260901054711 | 80 | 198 | 2.0 | 5.0 | 0.00 | 0.00 | 0.00 | 87 | 1014.3 |
| 20260901054211 | 80 | 195 | 2.0 | 5.0 | 0.00 | 0.00 | 0.00 | 87 | 1014.3 |
| 20260901053211 | 80 | 215 | 2.0 | 4.0 | 0.00 | 0.00 | 0.00 | 86 | 1014.5 |
| 20260901052711 | 80 | 200 | 2.0 | 4.0 | 0.00 | 0.00 | 0.00 | 86 | 1014.5 |
| 20260901052205 | 80 | 215 | 2.0 | 4.0 | 0.00 | 0.00 | 0.00 | 86 | 1014.4 |
| 20260901051705 | 80 | 205 | 2.0 | 4.0 | 0.00 | 0.00 | 0.00 | 85 | 1014.5 |
| 20260901051207 | 80 | 221 | 1.0 | 4.0 | 0.00 | 0.00 | 0.00 | 85 | 1014.5 |
| 20260901050705 | 80 | 191 | 1.0 | 4.0 | 0.00 | 0.00 | 0.00 | 85 | 1014.6 |
| 20260901045705 | 80 | 211 | 2.0 | 4.0 | 0.00 | 0.00 | 0.00 | 84 | 1014.7 |
| 20260901045159 | 80 | 208 | 2.0 | 4.0 | 0.00 | 0.00 | 0.00 | 84 | 1014.7 |
| 20260901044657 | 80 | 188 | 1.0 | 4.0 | 0.00 | 0.00 | 0.00 | 84 | 1014.7 |
| 20260901044158 | 80 | 231 | 1.0 | 3.0 | 0.00 | 0.00 | 0.00 | 85 | 1014.8 |
| 20260901043659 | 80 | 250 | 1.0 | 4.0 | 0.00 | 0.00 | 0.00 | 85 | 1014.8 |
| 20260901043159 | 80 | 211 | 2.0 | 5.0 | 0.00 | 0.00 | 0.00 | 85 | 1014.9 |
| 20260901042700 | 80 | 214 | 2.0 | 5.0 | 0.00 | 0.00 | 0.00 | 86 | 1014.9 |
| 20260901042157 | 80 | 238 | 1.0 | 3.0 | 0.00 | 0.00 | 0.00 | 86 | 1015.0 |
| 20260901041655 | 80 | 210 | 1.0 | 3.0 | 0.00 | 0.00 | 0.00 | 86 | 1015.0 |
| 20260901040153 | 80 | 215 | 1.0 | 3.0 | 0.00 | 0.00 | 0.00 | 86 | 1015.0 |
| 20260901035652 | 80 | 224 | 1.0 | 3.0 | 0.00 | 0.00 | 0.00 | 85 | 1015.0 |
| 20260901035146 | 80 | 235 | 1.0 | 4.0 | 0.00 | 0.00 | 0.00 | 86 | 1014.9 |
| 20260901034646 | 80 | 203 | 2.0 | 4.0 | 0.00 | 0.00 | 0.00 | 86 | 1014.9 |
| 20260901034144 | 80 | 211 | 2.0 | 4.0 | 0.00 | 0.00 | 0.00 | 86 | 1014.9 |
| 20260901033142 | 80 | 198 | 1.0 | 3.0 | 0.00 | 0.00 | 0.00 | 85 | 1015.0 |
| 20260901032644 | 80 | 187 | 0.0 | 1.0 | 0.00 | 0.00 | 0.00 | 84 | 1015.0 |
| 20260901031135 | 80 | 203 | 1.0 | 4.0 | 0.00 | 0.00 | 0.00 | 83 | 1015.0 |
| 20260901030635 | 80 | 195 | 2.0 | 4.0 | 0.00 | 0.00 | 0.00 | 83 | 1015.1 |
| 20260901030136 | 80 | 210 | 2.0 | 4.0 | 0.00 | 0.00 | 0.00 | 83 | 1015.0 |
| 20260901025136 | 80 | 195 | 1.0 | 5.0 | 0.00 | 0.00 | 0.00 | 84 | 1015.1 |
| 20260901024636 | 80 | 162 | 1.0 | 2.0 | 0.00 | 0.00 | 0.00 | 84 | 1015.0 |
| 20260901024130 | 80 | 205 | 0.0 | 2.0 | 0.00 | 0.00 | 0.00 | 84 | 1015.1 |
| 20260901023631 | 80 | 173 | 0.0 | 2.0 | 0.00 | 0.00 | 0.00 | 84 | 1015.1 |
| 20260901023131 | 80 | 174 | 0.0 | 2.0 | 0.00 | 0.00 | 0.00 | 84 | 1015.0 |
| 20260901022632 | 80 | 212 | 0.0 | 2.0 | 0.00 | 0.00 | 0.00 | 84 | 1014.9 |
| 20260901022132 | 80 | 212 | 0.0 | 2.0 | 0.00 | 0.00 | 0.00 | 84 | 1014.9 |
| 20260901021633 | 80 | 162 | 0.0 | 1.0 | 0.00 | 0.00 | 0.00 | 84 | 1014.9 |
| 20260901021132 | 80 | 162 | 0.0 | 1.0 | 0.00 | 0.00 | 0.00 | 83 | 1014.9 |
| 20260901020625 | 81 | 162 | 0.0 | 1.0 | 0.00 | 0.00 | 0.00 | 83 | 1014.9 |
| 20260901020124 | 80 | 162 | 0.0 | 1.0 | 0.00 | 0.00 | 0.00 | 84 | 1014.9 |
| 20260901015623 | 80 | 203 | 0.0 | 0.0 | 0.00 | 0.00 | 0.00 | 83 | 1015.0 |
| 20260901015124 | 80 | 203 | 0.0 | 0.0 | 0.00 | 0.00 | 0.00 | 83 | 1014.9 |
| 20260901014620 | 81 | 203 | 0.0 | 0.0 | 0.00 | 0.00 | 0.00 | 83 | 1014.9 |
| 20260901014122 | 81 | 203 | 0.0 | 0.0 | 0.00 | 0.00 | 0.00 | 82 | 1014.8 |
| 20260901013616 | 81 | 203 | 0.0 | 1.0 | 0.00 | 0.00 | 0.00 | 82 | 1014.8 |
| 20260901013114 | 81 | 200 | 1.0 | 3.0 | 0.00 | 0.00 | 0.00 | 82 | 1014.8 |
| 20260901012611 | 81 | 200 | 0.0 | 3.0 | 0.00 | 0.00 | 0.00 | 82 | 1014.9 |
| 20260901012110 | 81 | 211 | 0.0 | 2.0 | 0.00 | 0.00 | 0.00 | 82 | 1014.9 |
| 20260901011612 | 81 | 212 | 0.0 | 2.0 | 0.00 | 0.00 | 0.00 | 82 | 1014.9 |
| 20260901011112 | 81 | 173 | 0.0 | 2.0 | 0.00 | 0.00 | 0.00 | 82 | 1014.8 |
| 20260901010607 | 81 | 214 | 0.0 | 1.0 | 0.00 | 0.00 | 0.00 | 82 | 1014.8 |
| 20260901010105 | 81 | 214 | 0.0 | 2.0 | 0.00 | 0.00 | 0.00 | 82 | 1014.8 |
| 20260901005605 | 82 | 167 | 0.0 | 2.0 | 0.00 | 0.01 | 0.00 | 82 | 1014.8 |
| 20260901005107 | 82 | 176 | 0.0 | 2.0 | 0.00 | 0.01 | 0.00 | 82 | 1014.7 |
| 20260901004604 | 82 | 169 | 0.0 | 1.0 | 0.00 | 0.01 | 0.00 | 82 | 1014.6 |
| 20260901004104 | 82 | 146 | 0.0 | 0.0 | 0.00 | 0.02 | 0.00 | 81 | 1014.6 |
| 20260901003557 | 82 | 148 | 0.0 | 0.0 | 0.00 | 0.03 | 0.00 | 81 | 1014.6 |
| 20260901002556 | 82 | 191 | 0.0 | 1.0 | 0.00 | 0.06 | 0.00 | 80 | 1014.5 |
| 20260901002055 | 82 | 203 | 0.0 | 0.0 | 0.00 | 0.07 | 0.00 | 80 | 1014.5 |
| 20260901001555 | 82 | 193 | 0.0 | 0.0 | 0.00 | 0.08 | 0.00 | 79 | 1014.5 |
| 20260901000554 | 83 | 193 | 1.0 | 4.0 | 0.00 | 0.10 | 0.00 | 78 | 1014.5 |
| 20260901000048 | 83 | 198 | 1.0 | 5.0 | 0.00 | 0.10 | 0.00 | 78 | 1014.4 |
| 20260831235548 | 83 | 193 | 2.0 | 7.0 | 0.00 | 0.10 | 0.00 | 77 | 1014.4 |
| 20260831235046 | 83 | 158 | 1.0 | 7.0 | 0.00 | 0.10 | 0.00 | 77 | 1014.4 |
| 20260831234548 | 84 | 199 | 1.0 | 5.0 | 0.00 | 0.10 | 0.00 | 76 | 1014.4 |
| 20260831233545 | 85 | 212 | 1.0 | 3.0 | 0.00 | 0.10 | 0.00 | 74 | 1014.4 |
| 20260831233046 | 85 | 177 | 0.0 | 2.0 | 0.00 | 0.10 | 0.00 | 73 | 1014.4 |
| 20260831232542 | 86 | 193 | 0.0 | 2.0 | 0.00 | 0.10 | 0.00 | 70 | 1014.4 |
| 20260831232036 | 86 | 226 | 0.0 | 0.0 | 0.00 | 0.10 | 0.00 | 66 | 1014.4 |
| 20260831231533 | 86 | 197 | 0.0 | 2.0 | 0.00 | 0.10 | 0.00 | 66 | 1014.4 |
| 20260831231031 | 86 | 200 | 0.0 | 3.0 | 0.00 | 0.10 | 0.00 | 67 | 1014.4 |
| 20260831230532 | 86 | 208 | 0.0 | 3.0 | 0.00 | 0.10 | 0.00 | 66 | 1014.4 |
| 20260831230032 | 86 | 212 | 0.0 | 2.0 | 0.00 | 0.10 | 0.00 | 66 | 1014.5 |
| 20260831225531 | 86 | 297 | 1.0 | 3.0 | 0.00 | 0.10 | 0.00 | 66 | 1014.5 |
| 20260831224534 | 86 | 210 | 1.0 | 3.0 | 0.00 | 0.10 | 0.00 | 66 | 1014.7 |
| 20260831223019 | 86 | 290 | 1.0 | 3.0 | 0.00 | 0.10 | 0.00 | 67 | 1014.8 |
| 20260831222517 | 86 | 316 | 1.0 | 3.0 | 0.00 | 0.10 | 0.00 | 66 | 1014.9 |
| 20260831221509 | 86 | 318 | 0.0 | 1.0 | 0.00 | 0.10 | 0.00 | 67 | 1015.0 |
| 20260831221003 | 86 | 318 | 0.0 | 1.0 | 0.00 | 0.10 | 0.00 | 67 | 1015.0 |
| 20260831220502 | 86 | 311 | 0.0 | 1.0 | 0.00 | 0.10 | 0.00 | 67 | 1015.1 |
| 20260831220002 | 86 | 250 | 0.0 | 0.0 | 0.00 | 0.10 | 0.00 | 67 | 1015.1 |
| 20260831215501 | 86 | 320 | 0.0 | 2.0 | 0.00 | 0.10 | 0.00 | 68 | 1015.0 |
| 20260831215001 | 86 | 19 | 0.0 | 2.0 | 0.00 | 0.10 | 0.00 | 68 | 1015.0 |
| 20260831214501 | 86 | 57 | 0.0 | 2.0 | 0.00 | 0.10 | 0.00 | 67 | 1014.9 |
| 20260831213501 | 86 | 285 | 2.0 | 7.0 | 0.00 | 0.10 | 0.00 | 68 | 1015.1 |
| 20260831213000 | 86 | 314 | 1.0 | 7.0 | 0.00 | 0.10 | 0.00 | 67 | 1015.0 |
| 20260831212454 | 87 | 353 | 0.0 | 2.0 | 0.00 | 0.10 | 0.00 | 66 | 1014.9 |
| 20260831211444 | 87 | 20 | 2.0 | 5.0 | 0.00 | 0.10 | 0.00 | 65 | 1014.8 |
| 20260831210940 | 87 | 1 | 2.0 | 4.0 | 0.00 | 0.10 | 0.00 | 65 | 1014.8 |
| 20260831210434 | 87 | 91 | 2.0 | 4.0 | 0.00 | 0.10 | 0.00 | 64 | 1014.7 |
| 20260831205932 | 87 | 86 | 1.0 | 4.0 | 0.00 | 0.10 | 0.00 | 64 | 1014.7 |
| 20260831205426 | 87 | 318 | 1.0 | 6.0 | 0.00 | 0.10 | 0.00 | 63 | 1014.8 |
| 20260831204923 | 88 | 311 | 1.0 | 6.0 | 0.00 | 0.10 | 0.00 | 63 | 1014.8 |
| 20260831204424 | 88 | 344 | 1.0 | 4.0 | 0.00 | 0.10 | 0.00 | 63 | 1014.8 |
| 20260831203423 | 88 | 29 | 0.0 | 2.0 | 0.00 | 0.10 | 0.00 | 64 | 1014.9 |
| 20260831202925 | 88 | 269 | 1.0 | 5.0 | 0.00 | 0.10 | 0.00 | 64 | 1014.8 |
| 20260831201922 | 87 | 80 | 1.0 | 6.0 | 0.00 | 0.10 | 0.00 | 65 | 1014.9 |
| 20260831200922 | 88 | 106 | 1.0 | 6.0 | 0.00 | 0.10 | 0.00 | 65 | 1014.9 |
| 20260831200419 | 87 | 146 | 1.0 | 4.0 | 0.00 | 0.10 | 0.00 | 66 | 1014.9 |
| 20260831195920 | 87 | 179 | 1.0 | 5.0 | 0.00 | 0.10 | 0.00 | 66 | 1014.9 |
| 20260831195420 | 87 | 96 | 1.0 | 5.0 | 0.00 | 0.10 | 0.00 | 65 | 1014.9 |
| 20260831194919 | 87 | 198 | 1.0 | 4.0 | 0.00 | 0.10 | 0.00 | 66 | 1014.9 |
| 20260831194418 | 87 | 95 | 0.0 | 4.0 | 0.00 | 0.10 | 0.00 | 65 | 1015.0 |
| 20260831193920 | 87 | 29 | 1.0 | 4.0 | 0.00 | 0.10 | 0.00 | 66 | 1015.0 |
| 20260831193415 | 87 | 194 | 3.0 | 7.0 | 0.00 | 0.10 | 0.00 | 67 | 1014.9 |
| 20260831192915 | 87 | 34 | 4.0 | 7.0 | 0.00 | 0.10 | 0.00 | 66 | 1015.0 |
| 20260831191416 | 88 | 298 | 1.0 | 3.0 | 0.00 | 0.10 | 0.00 | 63 | 1015.4 |
| 20260831190916 | 88 | 338 | 1.0 | 3.0 | 0.00 | 0.10 | 0.00 | 64 | 1015.5 |
| 20260831190411 | 88 | 85 | 1.0 | 4.0 | 0.00 | 0.10 | 0.00 | 64 | 1015.5 |
| 20260831185912 | 88 | 72 | 1.0 | 4.0 | 0.00 | 0.10 | 0.00 | 65 | 1015.4 |
| 20260831185412 | 87 | 43 | 3.0 | 6.0 | 0.00 | 0.10 | 0.00 | 65 | 1015.4 |
| 20260831184410 | 88 | 96 | 0.0 | 3.0 | 0.00 | 0.10 | 0.00 | 64 | 1015.5 |
| 20260831183407 | 88 | 325 | 1.0 | 2.0 | 0.00 | 0.10 | 0.00 | 65 | 1015.5 |
| 20260831182907 | 88 | 325 | 1.0 | 3.0 | 0.00 | 0.10 | 0.00 | 64 | 1015.5 |
| 20260831182408 | 88 | 302 | 1.0 | 5.0 | 0.00 | 0.10 | 0.00 | 65 | 1015.5 |
| 20260831181906 | 87 | 98 | 2.0 | 6.0 | 0.00 | 0.10 | 0.00 | 64 | 1015.4 |
| 20260831181407 | 88 | 341 | 2.0 | 6.0 | 0.00 | 0.10 | 0.00 | 64 | 1015.5 |
| 20260831180906 | 89 | 95 | 1.0 | 3.0 | 0.00 | 0.10 | 0.00 | 62 | 1015.5 |
| 20260831175909 | 89 | 222 | 1.0 | 5.0 | 0.00 | 0.10 | 0.00 | 61 | 1015.4 |
| 20260831175407 | 90 | 119 | 0.0 | 3.0 | 0.00 | 0.10 | 0.00 | 61 | 1015.4 |
| 20260831174408 | 90 | 322 | 1.0 | 3.0 | 0.00 | 0.10 | 0.00 | 61 | 1015.6 |
| 20260831173903 | 90 | 79 | 1.0 | 4.0 | 0.00 | 0.10 | 0.00 | 62 | 1015.8 |
| 20260831173403 | 90 | 158 | 0.0 | 4.0 | 0.00 | 0.10 | 0.00 | 62 | 1015.8 |
| 20260831172903 | 90 | 80 | 1.0 | 5.0 | 0.00 | 0.10 | 0.00 | 63 | 1015.9 |
| 20260831172403 | 89 | 177 | 1.0 | 5.0 | 0.00 | 0.10 | 0.00 | 63 | 1015.9 |
| 20260831171903 | 89 | 172 | 2.0 | 5.0 | 0.00 | 0.10 | 0.00 | 63 | 1015.9 |
| 20260831171404 | 89 | 219 | 2.0 | 5.0 | 0.00 | 0.10 | 0.00 | 63 | 1016.0 |
| 20260831170859 | 89 | 200 | 2.0 | 5.0 | 0.00 | 0.10 | 0.00 | 63 | 1016.0 |
| 20260831165858 | 87 | 298 | 1.0 | 4.0 | 0.00 | 0.10 | 0.00 | 67 | 1016.1 |
| 20260831165359 | 87 | 201 | 0.0 | 4.0 | 0.00 | 0.10 | 0.00 | 66 | 1016.2 |
| 20260831164859 | 86 | 95 | 1.0 | 7.0 | 0.00 | 0.10 | 0.00 | 68 | 1016.2 |
| 20260831163854 | 85 | 20 | 1.0 | 9.0 | 0.00 | 0.10 | 0.00 | 70 | 1016.2 |
| 20260831163356 | 85 | 22 | 3.0 | 10.0 | 0.00 | 0.10 | 0.00 | 71 | 1016.3 |